Flag for Netherlands Weather past 2 weeks in Rotterdam, Netherlands

Now
55 °F

Passing clouds.


Feels Like: 54 °F
Forecast: 55 / 65 °F
Wind: 7 mph from Southwest

Location: Rotterdam Zestienhoven Airport

Current Time: Jul 29, 2015 at 7:48:16 AM

Latest Report: Jul 29, 2015 at 6:55 AM


Visibility: N/A

Pressure: 29.71 "Hg

Humidity: 94%

Dew point: 54 °F

Location of RotterdamLocation

Historic Weather in Rotterdam — Graph

°F

Rotterdam temperature yesterday

Maximum temperature yesterday: 64 °F (at 2:25 PM)
Minimum temperature yesterday: 55 °F (at 10:55 PM)
Average temperature yesterday: 61 °F

Past Weeks' High & Low Weather Summary

 TemperatureHumidityPressure
High77 °F (Jul 17, 1:25 PM)100% (Jul 14, 10:25 PM)30.12 "Hg (Jul 14, 10:25 PM)
Low48 °F (Jul 26, 1:25 AM)40% (Jul 23, 2:55 PM)29.42 "Hg (Jul 25, 6:25 AM)
Average64 °F78%29.87 "Hg
* Reported Jul 14 6:25 AM — Jul 29 6:25 AM, Rotterdam, Weather by CustomWeather, © 2015

Note: Actual official high and low records may vary slightly from our data, if they occured in-between our weather recording intervals... More about our weather records

Advertising

Rotterdam weather history for previous 24 hours

 ConditionsComfort  
Time TempWeatherWind HumidityBarometerVisibility
6:25 AM
Wed, Jul 29
55 °FPassing clouds.7 mph94%29.71 "HgN/A
5:55 AM52 °FPassing clouds.6 mph94%29.71 "HgN/A
4:55 AM55 °FPassing clouds.7 mph88%29.71 "HgN/A
4:25 AM55 °FPassing clouds.8 mph94%29.71 "HgN/A
3:55 AM55 °FPassing clouds.9 mph88%29.71 "HgN/A
3:25 AM54 °FLight rain. Passing clouds.8 mph100%29.71 "HgN/A
2:55 AM55 °FRain showers. Clear.10 mph94%29.71 "HgN/A
2:25 AM55 °FRain showers. Partly cloudy.14 mph94%29.71 "Hg5 mi
1:55 AM55 °FRain showers. Passing clouds.12 mph94%29.71 "Hg6 mi
1:25 AM57 °FPassing clouds.14 mph82%29.71 "HgN/A
12:55 AM55 °FPassing clouds.9 mph94%29.71 "HgN/A
11:55 PM
Tue, Jul 28
57 °FLight rain. Passing clouds.13 mph94%29.71 "HgN/A
10:55 PM55 °FLight rain. Passing clouds.14 mph94%29.71 "HgN/A
10:25 PM57 °FSprinkles. Partly sunny.17 mph88%29.68 "HgN/A
9:55 PM59 °FRain. Broken clouds.17 mph88%29.68 "Hg6 mi
9:25 PM59 °FHeavy rain. Broken clouds.18 mph88%29.68 "Hg6 mi
8:55 PM59 °FLight rain. Scattered clouds.20 mph88%29.68 "HgN/A
8:25 PM63 °FLight rain. Scattered clouds.20 mph73%29.68 "HgN/A
7:55 PM63 °FBroken clouds.20 mph73%29.68 "HgN/A
7:25 PM63 °FBroken clouds.22 mph68%29.68 "HgN/A
6:55 PM64 °FPartly sunny.22 mph68%29.68 "HgN/A
5:55 PM63 °FScattered clouds.17 mph73%29.68 "HgN/A
5:25 PM61 °FLight rain. Scattered clouds.15 mph77%29.68 "HgN/A
4:55 PM63 °FScattered clouds.21 mph68%29.68 "HgN/A
4:25 PM63 °FBroken clouds.21 mph64%29.68 "HgN/A
3:55 PM64 °FScattered clouds.24 mph64%29.68 "HgN/A
3:25 PM64 °FBroken clouds.21 mph60%29.65 "HgN/A
2:55 PM63 °FBroken clouds.22 mph64%29.65 "HgN/A
2:25 PM64 °FPartly sunny.20 mph68%29.65 "HgN/A
1:55 PM63 °FBroken clouds.18 mph73%29.65 "HgN/A
1:25 PM63 °FScattered clouds.23 mph73%29.65 "HgN/A
12:55 PM61 °FLight rain. Broken clouds.22 mph77%29.65 "HgN/A
12:25 PM61 °FLight rain. Broken clouds.18 mph83%29.65 "HgN/A
11:55 AM61 °FDrizzle. Broken clouds.15 mph83%29.65 "HgN/A
11:25 AM59 °FDrizzle. Broken clouds.20 mph88%29.62 "HgN/A
10:55 AM59 °FSprinkles. Partly sunny.18 mph94%29.62 "Hg4 mi
10:25 AM59 °FDrizzle. Broken clouds.17 mph88%29.62 "HgN/A
9:55 AM59 °FRain. Broken clouds.16 mph94%29.62 "HgN/A
9:25 AM59 °FLight rain. Broken clouds.13 mph94%29.62 "HgN/A
8:55 AM61 °FBroken clouds.16 mph88%29.59 "HgN/A
8:25 AM59 °FDrizzle. Partly sunny.12 mph94%29.59 "Hg6 mi
7:55 AM59 °FLight rain. Broken clouds.8 mph94%29.59 "HgN/A
7:25 AM59 °FRain showers. Partly sunny.13 mph94%29.59 "Hg5 mi
Weather by CustomWeather, © 2015

See weather overviewHow to use our weather pages